Total_Precipitation_Accumulation
0.01 0.08 0.21 0.28 0.48 1.05 1.12 0.79 0.43 0.27 0.26 0.33 0.37 0.35 0.44 0.51 0.52 0.81 0.40 0.14 0.05 0.02 0.03 0.07 0.10 0.09 0.10 0.13 0.14 0.16 0.16 0.11 0.10 0.10 0.13 0.15 0.14 0.12 0.13 0.16 0.17 0.19 0.18 0.19 0.20 0.21 0.19 0.15 0.13
0.02 0.08 0.21 0.28 0.72 1.33 1.08 0.73 0.38 0.28 0.23 0.35 0.46 0.39 0.52 0.46 0.22 0.19 0.21 0.15 0.07 0.03 0.03 0.04 0.07 0.10 0.10 0.11 0.13 0.16 0.16 0.13 0.12 0.13 0.15 0.16 0.15 0.12 0.13 0.14 0.14 0.14 0.14 0.14 0.14 0.15 0.12 0.10 0.10
0.01 0.06 0.17 0.28 0.74 0.97 0.74 0.50 0.27 0.24 0.18 0.24 0.37 0.32 0.43 0.52 0.30 0.22 0.22 0.18 0.11 0.07 0.06 0.07 0.08 0.09 0.11 0.11 0.12 0.17 0.19 0.17 0.15 0.18 0.19 0.17 0.17 0.15 0.15 0.15 0.15 0.14 0.12 0.10 0.11 0.11 0.09 0.09 0.12
0.01 0.03 0.12 0.26 0.49 0.53 0.40 0.33 0.24 0.22 0.21 0.21 0.31 0.41 0.53 0.41 0.35 0.35 0.30 0.28 0.18 0.12 0.08 0.09 0.12 0.14 0.13 0.12 0.11 0.15 0.20 0.19 0.17 0.19 0.22 0.20 0.22 0.24 0.21 0.15 0.15 0.15 0.12 0.10 0.10 0.10 0.10 0.11 0.13
0.00 0.02 0.09 0.20 0.29 0.34 0.32 0.29 0.22 0.21 0.21 0.28 0.38 0.66 0.86 0.58 0.42 0.40 0.39 0.37 0.30 0.19 0.14 0.13 0.16 0.16 0.16 0.15 0.15 0.15 0.16 0.16 0.14 0.14 0.14 0.15 0.19 0.27 0.24 0.17 0.16 0.15 0.13 0.10 0.11 0.11 0.11 0.13 0.15
0.00 0.01 0.06 0.11 0.17 0.21 0.24 0.21 0.22 0.18 0.21 0.34 0.54 0.79 0.84 0.65 0.62 0.65 0.68 0.57 0.54 0.39 0.27 0.23 0.23 0.21 0.19 0.17 0.19 0.19 0.17 0.14 0.13 0.12 0.10 0.12 0.14 0.17 0.19 0.19 0.18 0.16 0.13 0.11 0.11 0.12 0.12 0.15 0.17
0.00 0.01 0.03 0.05 0.08 0.11 0.16 0.16 0.17 0.18 0.25 0.38 0.60 0.95 0.94 0.91 0.90 0.86 1.00 1.08 0.88 0.61 0.46 0.38 0.31 0.25 0.24 0.24 0.23 0.20 0.19 0.17 0.15 0.15 0.14 0.15 0.15 0.16 0.19 0.20 0.20 0.19 0.18 0.15 0.12 0.13 0.14 0.17 0.18
0.00 0.01 0.02 0.02 0.04 0.08 0.09 0.12 0.14 0.18 0.28 0.38 0.56 0.97 1.17 1.00 1.05 1.09 1.25 1.35 1.26 0.85 0.67 0.53 0.50 0.46 0.38 0.31 0.29 0.29 0.26 0.25 0.22 0.21 0.21 0.20 0.21 0.22 0.25 0.24 0.24 0.25 0.26 0.23 0.20 0.18 0.17 0.20 0.20
0.00 0.00 0.01 0.01 0.03 0.05 0.05 0.11 0.15 0.14 0.18 0.35 0.54 0.82 0.90 0.83 0.94 1.06 1.24 1.38 1.55 1.34 0.94 0.75 0.68 0.65 0.60 0.50 0.44 0.45 0.43 0.39 0.34 0.36 0.36 0.38 0.40 0.45 0.55 0.47 0.50 0.47 0.49 0.46 0.43 0.40 0.37 0.32 0.28
0.00 0.00 0.01 0.01 0.02 0.03 0.05 0.09 0.15 0.12 0.28 0.55 0.68 0.81 0.72 0.84 0.93 1.12 1.26 1.31 1.45 1.53 1.09 0.93 0.78 0.70 0.71 0.80 0.92 0.81 0.71 0.68 0.64 0.72 0.76 0.84 0.91 0.89 0.74 0.77 0.92 1.02 1.15 1.07 0.99 0.95 0.76 0.61 0.55
0.00 0.01 0.01 0.01 0.01 0.02 0.05 0.05 0.11 0.13 0.38 0.89 1.08 1.10 1.00 0.95 1.07 1.31 1.51 1.54 1.41 1.46 1.18 1.07 1.05 0.99 0.90 1.01 1.16 1.13 1.05 1.04 0.94 0.96 1.09 1.18 1.12 1.04 0.98 1.05 1.24 1.35 1.49 1.46 1.63 1.66 1.34 1.29 1.30
0.00 0.00 0.01 0.01 0.01 0.02 0.04 0.05 0.10 0.17 0.43 0.73 1.04 1.03 1.16 1.11 1.19 1.41 1.70 1.85 1.84 1.91 1.61 1.43 1.45 1.30 1.20 1.19 1.29 1.31 1.29 1.20 1.12 1.20 1.23 1.41 1.48 1.41 1.39 1.48 1.51 1.60 1.74 2.05 1.94 2.06 1.96 1.82 1.73
0.00 0.00 0.00 0.01 0.01 0.02 0.04 0.11 0.12 0.21 0.33 0.54 0.79 0.81 0.86 1.14 1.50 1.84 2.19 2.18 2.30 2.43 2.32 2.04 1.78 1.59 1.53 1.61 1.59 1.53 1.51 1.47 1.50 1.60 1.59 1.65 1.82 1.81 1.84 1.78 1.79 1.68 1.88 2.19 2.26 2.16 2.34 2.37 2.18
0.00 0.00 0.00 0.01 0.01 0.03 0.05 0.13 0.19 0.31 0.38 0.46 0.72 0.97 1.01 1.34 1.63 2.15 2.79 2.69 2.47 2.64 2.70 2.49 2.24 2.05 2.02 2.14 2.16 2.02 1.85 1.92 1.98 1.95 1.84 1.88 2.07 2.27 2.30 2.15 2.08 1.94 1.97 2.15 2.27 2.31 2.73 2.60 2.46
0.00 0.00 0.02 0.04 0.06 0.08 0.12 0.27 0.40 0.45 0.42 0.50 0.77 1.11 1.34 1.52 1.85 2.16 2.52 2.79 2.92 3.01 2.90 2.84 2.74 2.58 2.61 2.58 2.54 2.36 2.28 2.14 2.11 2.14 2.20 2.16 2.16 2.39 2.44 2.41 2.27 2.19 2.17 2.29 2.30 2.50 2.73 2.44 2.32
0.01 0.02 0.05 0.08 0.09 0.11 0.17 0.48 0.49 0.41 0.42 0.73 0.94 1.29 1.57 1.67 1.93 2.30 2.59 3.04 3.27 3.30 3.26 3.24 3.11 3.05 2.99 2.97 2.88 2.74 2.60 2.32 2.10 2.09 2.23 2.25 2.26 2.40 2.47 2.27 2.15 2.38 2.47 2.52 2.63 2.71 2.73 2.55 2.46
0.03 0.04 0.07 0.10 0.11 0.11 0.17 0.37 0.49 0.43 0.58 0.86 1.12 1.44 1.75 2.02 2.45 2.88 3.05 3.16 3.51 3.78 3.89 3.85 3.80 3.54 3.29 3.23 3.23 3.24 3.13 2.79 2.45 2.32 2.31 2.31 2.19 2.23 2.36 2.19 2.24 2.45 2.54 2.55 2.36 2.69 2.66 2.60 2.49
0.04 0.05 0.10 0.13 0.13 0.14 0.22 0.36 0.46 0.51 0.66 1.01 1.40 1.67 1.93 2.35 2.84 3.15 3.35 3.64 3.79 3.97 4.31 4.18 4.06 4.03 3.95 3.83 3.61 3.57 3.30 2.99 2.85 2.70 2.62 2.43 2.29 2.28 2.40 2.26 2.33 2.47 2.54 2.49 2.49 2.64 2.65 2.49 2.44
0.05 0.07 0.11 0.15 0.14 0.17 0.32 0.50 0.52 0.66 0.90 1.13 1.42 1.71 1.97 2.27 2.70 3.13 3.20 3.38 3.65 4.12 4.42 4.50 4.63 4.57 4.33 3.95 3.54 3.35 3.20 3.10 2.96 2.72 2.45 2.33 2.29 2.35 2.50 2.38 2.51 2.50 2.34 2.32 2.48 2.62 2.47 2.23 2.39
0.06 0.09 0.13 0.15 0.13 0.15 0.29 0.48 0.58 0.89 1.15 1.17 1.24 1.40 1.62 2.06 2.48 2.78 2.86 2.87 3.21 3.76 4.17 4.29 4.04 3.91 3.83 3.59 3.41 3.38 3.50 3.20 2.89 2.66 2.37 2.19 2.18 2.23 2.19 2.25 2.18 2.21 2.27 2.28 2.33 2.48 2.28 1.92 2.11
0.05 0.06 0.11 0.16 0.15 0.19 0.30 0.59 0.77 1.01 1.12 1.16 1.21 1.30 1.45 1.79 2.15 2.42 2.44 2.51 2.73 2.82 3.06 3.22 3.32 3.18 3.05 2.98 2.97 3.05 3.18 2.90 2.59 2.40 2.25 2.04 1.92 1.89 1.89 1.89 1.99 2.20 2.28 2.22 2.25 2.26 2.12 1.80 1.79
0.06 0.07 0.06 0.08 0.15 0.26 0.38 0.89 1.10 1.02 1.08 1.21 1.22 1.22 1.44 1.77 1.75 1.84 1.97 2.12 2.33 2.39 2.53 2.58 2.61 2.68 2.63 2.62 2.56 2.45 2.34 2.18 2.04 2.03 1.96 1.91 1.81 1.72 1.66 1.66 1.71 1.78 1.83 1.85 1.74 1.85 1.98 1.93 1.74
0.05 0.05 0.06 0.09 0.18 0.28 0.39 0.69 1.05 1.29 1.36 1.18 1.11 1.06 1.26 1.39 1.29 1.33 1.47 1.53 1.68 1.78 1.97 2.11 2.19 2.24 2.28 2.27 2.16 2.11 1.97 1.93 1.89 1.82 1.75 1.66 1.61 1.61 1.54 1.47 1.44 1.37 1.40 1.50 1.52 1.62 1.67 1.69 1.67
0.04 0.06 0.12 0.23 0.41 0.64 0.53 0.65 1.03 1.31 1.46 1.16 1.06 1.03 1.13 1.09 1.06 1.20 1.27 1.27 1.34 1.53 1.69 1.83 1.92 1.92 1.98 1.99 1.95 1.87 1.79 1.75 1.66 1.57 1.53 1.48 1.46 1.39 1.30 1.27 1.29 1.24 1.25 1.32 1.38 1.46 1.42 1.49 1.55
0.06 0.13 0.45 0.80 1.09 1.11 0.71 0.74 1.08 1.05 1.02 0.97 0.96 1.04 1.06 0.97 0.89 0.89 0.94 1.05 1.17 1.30 1.37 1.46 1.55 1.59 1.55 1.57 1.58 1.52 1.51 1.47 1.35 1.27 1.22 1.15 1.09 1.04 1.01 0.96 1.06 1.08 1.15 1.17 1.17 1.24 1.32 1.44 1.51
0.10 0.15 0.50 0.76 0.81 0.91 0.79 1.05 1.37 1.07 0.95 0.88 0.92 1.01 0.99 0.84 0.74 0.71 0.73 0.79 0.88 0.95 1.03 1.10 1.20 1.26 1.30 1.31 1.28 1.19 1.14 1.12 1.03 1.06 1.01 0.96 0.85 0.78 0.83 0.91 1.01 1.07 1.10 1.08 1.10 1.09 1.14 1.28 1.40
0.15 0.17 0.23 0.43 0.47 0.67 0.87 1.14 1.28 0.96 0.90 0.96 1.07 1.08 1.01 0.78 0.62 0.57 0.60 0.64 0.65 0.65 0.70 0.78 0.94 1.01 1.06 1.10 1.07 0.98 0.94 0.93 0.88 0.91 0.96 0.93 0.91 0.80 0.80 0.86 0.94 1.04 1.13 1.14 1.11 1.10 1.18 1.32 1.39
0.15 0.15 0.19 0.36 0.51 0.70 0.79 1.13 1.37 1.23 1.17 1.12 1.18 1.02 0.74 0.57 0.47 0.43 0.44 0.45 0.46 0.49 0.57 0.66 0.74 0.78 0.83 0.91 0.92 0.77 0.81 0.87 0.85 0.83 0.83 0.84 0.84 0.81 0.79 0.83 0.87 0.86 0.90 0.95 0.95 1.00 1.11 1.27 1.33
0.19 0.21 0.28 0.39 0.41 0.61 0.88 1.04 0.96 0.95 1.00 1.09 1.06 0.85 0.59 0.46 0.36 0.35 0.38 0.40 0.42 0.44 0.52 0.62 0.72 0.80 0.81 0.86 0.90 0.78 0.75 0.77 0.77 0.77 0.74 0.75 0.74 0.76 0.75 0.75 0.72 0.68 0.67 0.68 0.73 0.82 0.96 1.03 1.04
0.17 0.19 0.28 0.42 0.40 0.43 0.62 0.74 0.51 0.53 0.60 0.64 0.65 0.56 0.47 0.44 0.34 0.35 0.39 0.41 0.41 0.46 0.52 0.60 0.69 0.76 0.80 0.87 0.95 0.93 0.86 0.82 0.78 0.74 0.69 0.66 0.63 0.65 0.68 0.66 0.64 0.59 0.59 0.65 0.69 0.75 0.82 0.89 0.87